Location: New Canada
(47.1017°N, 68.5042°W)
Time: 16:20:22
(UTC+00:00)

RS-44 - Pass Details

Date: 21 April 2024
Orbit: 1174 x 1511 km, 82.5° (Epoch: 20 May)

Event Time Altitude Azimuth Distance (km) Brightness Sun altitude
Rises 02:58:39 0° 252° (WSW) 4,625 ? -27.3°
Reaches altitude 10° 03:03:19 10° 273° (W) 3,612 ? -27.6°
Maximum altitude 03:08:02 15° 307° (NW) 3,150 ? -27.9°
Drops below altitude 10° 03:12:41 10° 341° (NNW) 3,504 ? -28.2°
Sets 03:17:08 0° 3° (N) 4,414 ? -28.5°
